GFSFLT2_250_spd_096.txt.gz
Wind_Speed
97 93 86 88 87 89 88 81 81 80 80 82 88 88 87 82 86 92 96 100 103 102 90 82 71 71 76
88 85 90 90 90 89 82 82 89 87 88 87 86 88 86 88 90 96 104 98 93 96 88 80 75 78 82
87 93 94 97 96 90 94 97 98 101 102 86 88 91 95 97 97 90 96 101 87 84 81 80 83 85 86
97 101 95 98 106 105 99 95 89 93 93 94 97 100 107 110 107 105 108 98 87 88 88 87 87 94 92
98 98 104 104 105 108 103 102 104 104 104 105 111 113 112 114 114 108 103 103 89 93 92 97 95 99 100
113 104 106 110 110 113 116 113 112 115 120 122 116 119 117 120 109 103 99 93 92 94 98 98 100 104 111
106 107 110 110 111 113 114 110 116 118 112 111 111 104 102 98 99 99 94 94 97 103 104 105 108 112 117
117 109 110 116 108 104 109 111 109 108 108 105 103 100 91 95 101 100 99 95 100 105 108 109 113 116 96
121 118 119 119 117 115 113 112 111 111 113 107 101 106 106 105 103 100 103 104 106 107 106 113 107 90 83
133 130 126 120 119 118 116 114 117 123 123 113 110 109 106 112 107 109 117 113 107 112 112 92 82 81 70
142 139 136 133 129 129 128 128 122 122 122 122 121 122 118 120 118 112 111 106 95 84 79 76 76 70 63
162 156 152 147 142 134 134 135 136 135 133 132 128 130 123 127 117 106 85 75 73 74 74 73 72 67 55
142 143 150 156 152 151 147 145 140 138 138 135 128 128 118 106 90 84 81 79 74 75 74 73 68 58 50
135 132 131 131 131 130 130 130 127 124 120 116 114 108 102 96 93 90 89 84 80 76 72 65 54 51 47
130 132 131 131 129 124 123 122 119 118 116 113 108 103 100 97 95 90 88 83 77 71 68 55 48 48 45
112 121 128 130 127 126 123 119 117 114 111 110 104 101 98 96 93 91 84 81 72 66 57 47 45 44 42
92 95 100 108 117 121 121 117 113 108 107 104 101 99 97 97 91 87 79 74 69 62 51 42 43 41 37

GFSFLT2_250_spd_099.txt.gz
Wind_Speed
91 91 96 96 94 93 96 96 96 90 91 88 78 84 75 74 66 71 77 81 86 80 80 83 88 95 93
95 95 96 99 102 101 102 99 103 101 94 85 85 80 76 68 78 76 80 82 83 82 83 85 89 100 93
105 104 104 103 103 107 104 101 95 97 86 82 84 81 76 81 79 81 85 78 79 87 92 94 96 92 90
106 107 107 104 99 97 100 98 93 88 89 89 91 90 81 81 84 83 84 86 89 93 98 93 91 87 81
108 105 102 104 101 100 106 103 98 99 99 97 95 94 90 91 92 83 87 99 99 100 94 90 84 82 79
115 113 113 112 107 103 106 103 108 104 107 103 95 95 102 95 94 96 107 95 96 88 89 81 79 81 84
114 116 117 114 112 109 107 108 108 107 107 109 114 101 100 102 102 105 101 103 91 86 86 84 81 84 92
125 119 118 117 117 112 110 105 102 105 112 107 105 108 104 98 101 95 92 87 88 88 86 87 90 94 97
131 128 127 122 123 118 115 113 111 108 112 103 101 102 95 93 94 93 92 90 93 97 96 97 96 99 103
153 150 140 134 128 119 114 115 110 108 109 102 104 105 98 98 95 103 99 98 101 102 105 107 109 107 109
163 161 155 148 146 141 133 128 124 116 113 111 107 114 112 108 106 109 113 108 108 114 114 112 114 113 106
149 158 163 161 158 160 150 144 136 132 127 125 122 126 126 121 117 121 120 121 116 113 120 116 104 90 76
120 130 143 143 146 149 146 145 151 148 137 134 135 129 133 126 121 125 124 129 123 120 104 94 83 74 71
101 108 119 131 141 143 145 141 136 134 132 128 133 132 133 134 132 124 114 111 104 95 92 87 81 76 65
87 92 98 106 115 129 136 136 135 131 126 123 122 121 120 117 113 110 105 101 96 92 88 83 79 75 67
76 81 85 91 98 105 116 124 127 124 125 123 119 117 114 112 107 106 102 100 94 90 87 83 80 77 65
71 73 76 81 85 92 94 99 111 116 119 119 115 111 108 105 106 102 100 96 91 89 86 84 79 77 69

GFSFLT2_250_spd_102.txt.gz
Wind_Speed
83 85 85 86 88 83 87 84 82 82 83 85 87 86 87 85 82 82 85 87 82 84 71 66 73 70 73
92 90 90 90 89 90 91 93 92 97 95 93 92 91 89 85 83 83 89 89 78 74 75 74 73 71 72
98 97 95 95 98 99 101 103 101 99 100 99 98 98 94 96 95 89 89 82 88 77 76 80 74 74 77
98 99 100 98 97 99 103 104 105 105 102 101 101 102 99 101 101 93 87 86 80 80 82 77 77 78 82
104 106 105 103 103 104 105 106 106 107 105 105 111 109 110 104 100 98 96 92 85 81 87 82 80 85 89
105 105 104 105 108 106 109 108 104 103 105 106 111 108 108 104 99 96 95 90 84 89 81 94 94 90 94
109 110 112 114 115 114 115 113 114 112 109 109 105 102 103 106 106 102 98 94 92 88 93 85 90 92 90
120 115 114 110 112 120 122 118 113 110 108 109 106 108 105 104 101 99 95 89 83 84 83 84 89 88 83
131 127 126 124 121 121 119 118 120 118 111 105 106 106 104 104 105 101 93 91 88 86 88 88 89 92 84
132 143 144 140 140 139 136 130 129 123 117 118 111 109 104 104 105 102 104 103 98 93 96 94 90 89 88
131 132 134 139 142 144 150 146 146 141 136 135 127 121 117 110 107 109 108 105 102 100 97 94 95 93 94
136 139 138 136 134 136 139 140 141 145 148 145 140 133 123 126 113 111 105 101 103 102 100 98 96 96 99
129 132 135 137 137 138 141 144 138 138 143 137 142 139 143 135 124 125 118 114 112 103 107 104 106 105 109
113 115 116 115 116 117 119 122 126 142 148 146 144 142 135 130 129 133 131 125 129 127 124 122 120 116 112
96 95 94 92 92 95 95 100 103 112 120 127 136 139 139 133 129 125 121 119 119 119 116 116 117 119 118
86 85 83 81 81 82 82 85 89 98 104 115 118 122 127 128 127 123 117 117 117 113 110 110 109 105 103
75 75 74 73 72 73 73 76 81 87 93 104 105 109 112 112 114 114 112 114 113 108 104 106 102 96 95

GFSFLT2_250_spd_108.txt.gz
Wind_Speed
95 96 96 96 95 93 91 88 87 85 85 82 81 82 83 87 87 86 88 82 81 81 76 63 66 67 65
88 88 86 85 85 84 85 85 83 85 86 88 88 88 88 90 88 87 88 90 87 84 77 77 71 73 72
79 76 75 76 74 77 77 80 81 81 84 83 84 83 85 88 88 87 87 86 82 79 75 78 75 76 77
75 72 69 68 68 68 69 69 68 70 71 73 78 80 79 83 82 82 84 87 84 82 80 77 75 75 77
76 74 70 74 76 74 71 70 70 70 70 73 76 77 76 76 76 78 85 81 83 86 82 84 81 83 83
78 80 81 81 82 83 81 77 79 80 79 76 76 77 78 79 86 85 81 85 85 86 87 85 85 87 84
83 83 88 89 88 88 88 89 87 88 83 84 86 85 84 84 83 84 85 85 87 86 86 86 85 85 84
97 95 91 91 92 91 92 89 94 94 92 91 91 91 90 88 89 90 90 89 88 90 89 89 90 88 89
100 103 101 104 105 102 101 99 97 98 99 97 100 98 97 96 96 97 94 93 93 91 88 87 86 82 81
103 104 103 105 106 105 109 107 104 105 106 104 98 100 101 102 101 100 103 101 99 97 94 92 88 88 81
112 111 109 111 110 109 109 107 112 113 113 113 111 112 112 110 110 110 108 107 105 104 104 104 103 101 99
118 119 117 115 114 114 112 112 110 109 109 109 111 113 114 115 117 118 118 117 115 113 112 113 112 114 110
116 118 120 122 122 122 120 119 116 116 114 114 113 114 113 111 109 111 112 110 109 109 106 106 106 103 101
110 113 115 117 121 122 123 123 122 121 121 122 120 118 121 118 114 114 113 111 109 108 107 107 104 106 102
99 103 106 110 113 115 115 116 116 117 119 122 124 122 122 121 119 118 117 116 116 114 112 110 108 106 105
92 94 95 97 101 104 106 106 108 108 110 112 112 114 115 114 114 114 115 113 111 110 110 111 106 104 104
83 87 90 93 95 97 97 96 96 97 100 103 104 106 104 103 105 108 109 108 109 109 107 105 106 106 99

GFSFLT2_250_spd_111.txt.gz
Wind_Speed
77 79 80 83 87 90 93 94 94 93 90 90 88 86 86 85 85 82 80 76 72 75 76 79 79 78 77
78 79 79 81 83 85 87 89 91 90 90 91 92 92 90 89 88 86 84 81 78 79 77 80 82 80 78
76 77 78 79 78 77 79 82 83 82 84 86 85 84 79 79 78 78 80 82 80 81 80 78 79 78 77
78 77 74 75 73 74 75 74 73 72 71 71 70 68 65 68 74 77 79 81 82 81 83 83 81 79 76
79 77 75 73 73 74 71 65 67 67 67 68 62 61 62 61 63 62 62 65 68 68 65 62 64 68 69
77 79 78 75 73 71 74 64 70 69 68 65 64 63 60 59 58 57 57 58 57 60 60 64 65 64 65
78 80 80 78 74 73 75 71 77 72 73 72 72 69 64 60 63 62 59 61 62 65 66 66 69 69 69
83 85 85 85 82 78 79 78 79 78 75 77 77 75 73 72 69 69 71 70 69 69 69 69 71 71 71
93 92 92 91 89 91 93 88 85 82 83 79 81 82 80 79 79 82 81 77 76 76 77 77 77 76 77
102 101 100 99 100 97 98 98 100 98 97 91 89 85 85 85 86 83 82 85 88 88 87 84 81 80 81
102 106 107 107 106 106 106 105 104 102 107 107 103 101 99 91 92 92 90 90 90 90 88 87 86 86 85
105 106 106 107 109 110 111 110 108 106 107 107 105 109 110 106 103 100 98 99 98 96 95 92 91 91 92
105 108 109 107 106 108 111 113 113 113 113 113 109 110 106 109 109 110 111 108 106 103 101 101 101 101 101
98 103 107 109 108 108 108 108 107 111 113 116 116 116 114 112 110 105 104 109 112 111 111 111 109 107 102
87 89 94 99 103 105 106 107 105 108 110 112 113 115 115 116 114 111 109 105 105 106 105 103 99 97 96
79 81 85 89 91 93 95 99 100 101 104 107 109 111 113 113 113 114 113 111 109 108 107 104 101 97 96
69 72 76 80 83 86 88 90 92 92 93 97 101 103 106 108 112 113 115 114 113 111 110 108 104 101 99

GFSFLT2_250_spd_114.txt.gz
Wind_Speed
83 85 87 87 84 88 85 85 87 87 86 84 87 88 88 87 84 81 80 77 75 73 74 70 69 69 69
83 82 85 85 85 85 83 81 83 83 83 83 81 82 84 86 85 83 84 83 79 78 77 74 72 72 70
83 84 84 84 84 82 81 81 80 79 81 81 80 80 81 84 84 84 86 82 82 80 79 79 77 74 70
78 81 85 84 84 82 78 79 78 77 79 78 78 76 76 79 78 78 80 81 80 82 83 81 76 71 71
78 78 81 82 79 80 78 73 75 73 76 76 73 72 73 72 71 69 70 71 74 74 73 71 69 69 73
80 81 80 80 85 79 79 76 73 72 73 73 71 69 69 69 65 64 63 64 64 63 61 63 64 68 71
79 79 80 82 83 82 82 81 78 76 75 69 67 69 67 64 61 61 61 61 61 60 57 52 54 57 58
89 88 86 84 83 86 86 83 81 80 76 72 72 67 66 65 66 60 58 58 58 57 56 49 45 53 50
95 97 96 93 92 87 84 82 81 81 79 74 73 74 70 70 75 65 64 63 60 59 57 54 53 52 52
96 98 99 102 101 96 93 89 86 85 84 80 82 77 72 77 79 77 66 70 69 63 61 59 57 57 57
99 98 100 101 104 103 102 99 95 90 94 86 88 87 83 84 82 80 77 72 70 71 69 65 67 66 68
99 101 100 101 103 105 106 105 104 102 101 97 93 98 97 88 88 88 81 78 77 73 75 74 76 77 76
91 97 99 98 100 104 105 105 107 108 108 106 103 103 101 102 100 98 93 88 85 87 80 77 76 76 75
82 85 90 95 97 99 101 104 105 108 110 110 109 109 106 105 105 111 111 105 104 101 97 92 89 89 84
74 77 81 87 90 93 94 97 100 107 108 109 111 111 111 111 109 109 114 112 110 111 111 109 103 101 97
66 69 71 75 81 86 90 90 92 99 106 108 108 108 111 112 114 114 116 117 117 116 113 110 107 101 99
57 60 63 66 68 72 76 81 86 91 94 100 104 107 109 110 114 116 118 118 118 116 113 111 108 106 102

GFSFLT2_250_spd_117.txt.gz
Wind_Speed
80 80 81 82 84 86 87 90 92 90 87 85 84 86 83 84 84 83 82 84 83 86 86 85 82 78 73
72 73 76 75 77 79 82 84 85 83 78 81 79 79 81 81 85 82 80 80 80 80 80 80 79 77 73
69 70 73 73 73 74 78 78 79 77 77 79 75 76 81 79 82 81 79 79 78 78 77 77 76 77 75
68 70 71 75 76 77 76 78 78 77 78 79 77 73 75 72 72 74 75 75 75 75 75 74 74 76 76
74 73 73 74 76 78 79 81 81 80 81 81 79 75 77 76 74 73 70 69 69 73 73 73 73 76 75
79 81 80 78 76 78 79 82 81 81 83 82 79 76 74 72 72 71 66 68 70 71 73 69 70 73 68
85 84 85 85 84 82 80 80 81 84 79 78 80 75 76 77 71 70 68 66 67 67 67 68 71 72 74
84 87 89 90 89 88 88 84 82 84 81 80 82 79 73 74 72 71 68 66 69 65 63 62 64 68 68
86 85 89 92 93 91 92 91 88 86 84 80 83 81 80 75 72 71 68 72 70 66 61 61 59 59 59
86 87 88 93 94 95 94 94 94 93 92 86 85 82 81 80 75 73 71 69 67 68 66 64 63 60 57
89 87 87 87 92 96 97 97 98 97 100 94 90 88 83 82 80 77 77 74 71 68 68 59 64 68 63
80 84 87 87 87 90 95 96 98 100 103 98 96 94 90 87 85 83 80 77 75 71 72 66 64 64 61
73 77 79 80 82 85 91 94 95 97 101 100 98 100 95 90 93 87 84 84 80 77 78 75 72 69 67
68 71 73 75 77 77 81 89 93 96 98 101 98 101 98 98 95 97 91 86 84 84 83 80 78 74 70
61 63 65 68 71 72 75 78 84 94 97 99 101 98 102 102 100 101 98 95 91 92 85 83 83 80 75
55 56 59 61 62 63 66 70 75 83 91 95 97 100 100 103 105 106 106 104 99 99 93 90 85 83 82
47 48 49 52 55 57 57 61 65 72 82 87 91 96 99 102 105 108 109 111 111 104 104 106 100 94 90

GFSFLT2_250_spd_123.txt.gz
Wind_Speed
72 73 74 73 75 75 77 79 80 79 78 77 77 80 82 84 88 92 93 91 88 83 87 87 85 85 80
72 75 78 78 77 77 77 77 77 76 77 76 74 76 77 75 80 82 83 80 78 78 82 85 84 83 80
76 76 78 77 78 80 82 80 79 78 76 77 76 76 76 74 74 74 75 76 75 74 79 82 83 91 85
77 80 82 80 79 79 80 81 84 81 79 77 76 76 76 73 70 71 71 71 69 65 69 77 85 88 80
81 81 83 84 83 82 81 82 82 82 81 81 80 77 75 72 72 70 67 66 64 67 69 72 73 77 78
82 83 84 83 84 84 83 83 83 85 80 82 81 81 78 73 72 70 70 68 65 66 69 73 75 76 78
80 81 82 84 83 84 84 82 83 87 81 82 83 84 81 80 74 71 71 68 68 68 72 72 72 72 74
79 80 81 82 82 82 83 81 82 85 82 79 89 85 86 82 78 77 75 71 71 71 72 72 70 72 72
77 77 76 76 77 77 79 79 81 83 84 76 85 86 89 86 81 80 79 75 77 76 77 76 75 73 73
75 74 71 71 70 70 72 75 78 82 86 74 81 85 89 91 85 84 84 79 78 78 79 79 78 74 75
73 73 72 69 66 63 61 66 76 78 80 71 78 83 85 91 88 87 86 83 81 82 83 82 80 77 74
69 68 68 66 63 60 57 58 65 73 72 69 73 79 81 88 89 89 90 87 85 83 82 83 80 78 75
66 65 63 62 60 55 53 54 57 62 69 67 70 74 79 87 92 89 91 91 88 85 83 82 83 79 75
65 63 61 60 58 53 51 50 53 55 60 64 66 71 76 84 91 92 89 92 92 89 85 83 84 81 78
64 60 58 55 53 49 46 47 49 49 52 57 61 65 72 80 89 92 87 93 93 93 89 85 85 86 84
60 56 53 51 47 45 45 45 45 45 46 50 56 59 66 74 83 89 88 92 94 92 93 89 86 87 88
57 54 50 48 44 42 42 41 42 43 42 44 50 57 61 69 77 84 90 89 93 94 96 94 90 89 89

GFSFLT2_250_spd_126.txt.gz
Wind_Speed
63 64 66 68 71 73 74 76 78 80 80 81 82 83 82 83 84 87 91 95 99 105 106 104 104 101 98
65 68 70 72 75 76 77 78 79 80 79 80 81 81 81 81 80 81 83 87 89 93 95 96 95 90 92
66 71 76 78 79 79 80 79 80 80 81 81 81 82 80 79 78 78 78 79 82 83 86 88 87 84 85
69 73 78 81 82 82 84 84 85 84 84 82 82 83 83 81 80 78 77 77 79 77 76 77 79 80 76
74 75 77 80 82 84 85 87 89 90 88 86 85 84 85 85 84 79 78 77 77 74 72 73 74 73 73
77 78 79 81 82 84 84 86 90 92 89 90 88 85 85 86 87 83 78 79 78 74 72 72 69 68 71
78 81 83 83 81 81 82 84 86 91 90 89 91 85 84 86 86 85 82 81 79 75 71 70 67 66 68
79 80 81 80 81 82 83 84 86 87 85 85 92 86 85 85 85 85 85 83 82 76 73 70 69 67 70
79 78 79 80 79 78 79 79 82 85 86 79 84 83 83 85 84 85 88 87 85 77 76 70 67 71 72
81 80 78 76 76 74 73 74 76 78 84 74 78 77 78 85 83 84 87 89 89 81 79 72 70 73 72
81 81 78 75 73 71 70 68 69 72 77 69 74 74 71 81 82 83 85 90 91 85 82 77 74 75 76
80 79 77 76 74 69 67 66 62 64 69 65 69 71 67 74 80 80 80 89 91 88 85 81 78 78 78
77 74 73 71 69 67 65 60 57 58 58 62 64 68 67 68 74 76 76 85 91 89 87 86 82 82 81
74 72 69 66 65 63 60 55 53 51 49 51 57 62 64 64 69 75 69 83 89 91 90 89 86 86 84
70 68 67 65 62 58 56 52 50 48 45 42 52 57 60 59 65 69 68 80 87 90 91 92 90 88 87
68 65 65 63 58 55 50 47 46 45 43 42 45 53 54 54 61 65 67 73 85 87 91 93 94 90 88
66 65 62 58 52 50 48 46 43 41 40 41 42 48 50 48 55 60 62 66 80 86 90 94 95 92 91

GFSFLT2_250_spd_132.txt.gz
Wind_Speed
61 58 56 55 56 58 60 61 62 65 70 71 75 78 80 82 84 85 88 91 94 96 99 102 107 116 121
67 61 59 58 59 61 62 64 66 69 72 73 77 81 84 85 86 88 89 90 89 90 90 92 94 99 103
71 65 63 63 63 63 65 67 69 72 74 77 80 82 83 86 87 88 88 89 87 89 89 88 88 90 92
68 68 67 66 66 66 67 69 72 75 78 79 82 84 84 84 84 85 86 87 86 88 89 89 87 87 87
69 68 68 68 66 66 69 72 76 79 80 81 83 86 85 84 84 85 86 86 86 85 86 88 89 89 89
72 69 68 67 67 67 69 74 76 83 82 85 86 85 85 84 86 87 86 86 87 88 88 88 87 89 90
73 70 70 68 67 70 73 73 75 79 81 84 86 85 87 85 86 88 89 90 91 91 91 91 91 90 90
71 71 70 69 69 71 73 73 77 81 81 80 86 86 88 89 91 91 90 90 90 90 91 92 92 91 90
71 69 70 71 72 72 74 74 78 82 84 78 83 84 87 91 94 93 90 88 87 86 87 88 90 89 90
72 71 70 73 74 74 75 77 78 78 80 78 82 83 83 89 92 93 89 85 81 80 79 82 84 87 87
70 70 71 74 75 74 75 75 76 78 77 76 81 81 77 75 86 87 84 83 76 73 72 73 77 82 86
69 70 72 74 76 77 77 78 79 77 75 71 71 72 71 70 72 78 79 77 71 67 65 67 71 77 82
67 69 71 74 75 76 78 79 80 75 70 66 64 64 62 62 65 70 69 69 67 61 59 61 66 73 80
67 68 71 72 74 75 77 75 72 69 65 63 61 58 55 52 53 59 58 59 56 53 53 56 63 72 80
66 68 70 71 73 74 72 70 68 65 62 60 57 54 50 47 53 50 51 50 50 47 48 54 61 70 77
65 66 69 71 72 69 66 64 63 60 56 54 54 53 48 41 43 47 41 43 42 45 45 52 56 63 65
63 65 67 70 67 63 61 60 57 55 51 48 48 45 44 40 34 40 36 36 38 41 43 46 49 53 59

GFSFLT2_250_spd_135.txt.gz
Wind_Speed
70 69 69 69 66 62 61 62 63 64 67 69 71 74 76 77 78 80 82 84 87 92 97 101 103 107 114
75 72 72 72 71 65 65 67 68 67 67 70 73 76 78 80 83 84 86 87 88 89 90 90 94 99 102
79 76 78 78 74 70 68 69 70 71 71 72 73 75 79 83 86 88 90 92 92 92 91 91 90 91 91
77 80 81 82 76 72 70 70 70 72 73 75 75 77 79 81 86 89 91 92 94 96 96 94 92 90 89
80 80 84 84 79 75 74 74 72 73 73 74 74 78 81 83 86 89 91 92 94 93 93 95 94 93 92
85 85 86 83 76 75 74 72 76 74 72 76 75 79 81 84 85 88 89 89 89 90 91 91 91 91 92
87 88 84 78 74 73 72 72 74 74 72 77 76 79 80 83 84 85 85 84 84 85 87 88 91 93 93
87 86 82 75 72 71 72 71 72 73 73 76 79 80 80 82 82 83 83 84 85 86 88 90 93 93 94
84 79 75 72 70 70 69 69 71 74 75 74 77 79 80 84 86 87 87 88 88 87 87 89 90 91 92
79 74 71 70 68 67 68 68 70 75 75 75 75 74 76 84 89 91 91 92 90 86 84 84 86 89 92
73 71 68 67 67 67 68 69 71 73 72 74 78 77 77 78 89 90 92 92 88 84 79 78 80 83 87
69 66 64 66 67 67 69 69 71 71 72 71 73 76 78 78 79 84 84 83 79 78 72 69 71 74 77
65 63 65 65 66 66 68 69 70 69 69 70 71 73 71 71 73 77 75 76 68 67 66 64 63 63 70
61 62 62 63 65 66 68 68 70 71 71 70 69 67 65 64 62 64 67 66 63 61 61 62 60 59 61
59 59 60 61 63 63 65 68 70 71 71 65 62 62 60 57 53 54 58 60 52 52 55 57 56 54 56
56 57 58 60 61 62 64 67 69 67 63 61 59 58 58 57 44 45 51 52 49 44 51 53 50 47 52
55 55 57 58 60 62 64 66 63 61 59 55 55 51 53 55 51 41 40 45 44 40 46 47 44 41 50

GFSFLT2_250_spd_138.txt.gz
Wind_Speed
81 82 84 85 84 83 81 79 78 75 68 67 62 64 66 68 70 72 76 81 86 92 96 101 108 114 111
89 87 85 83 84 84 84 85 83 80 77 72 67 63 68 70 71 74 77 81 85 88 90 94 105 108 117
90 91 92 86 83 84 84 85 85 82 78 75 73 69 69 72 74 76 78 80 82 86 88 92 96 100 109
95 94 93 89 84 83 84 84 84 83 81 77 75 73 74 74 74 76 78 81 83 85 88 91 93 95 98
95 94 94 88 82 84 84 82 82 80 75 75 75 77 77 77 76 76 78 80 83 85 89 91 94 96 98
89 91 87 81 81 82 81 79 81 77 76 77 74 76 76 77 76 76 77 79 82 84 86 90 94 96 99
87 85 80 76 76 77 76 78 78 76 76 77 72 73 73 73 74 76 77 79 82 83 84 87 90 94 95
79 78 75 73 73 72 70 70 73 73 73 75 72 72 72 73 74 76 76 79 81 83 86 88 91 92 92
73 71 70 67 66 67 68 68 69 70 67 67 69 70 72 75 74 74 76 77 79 81 83 87 90 91 92
71 67 64 63 61 61 63 64 64 67 63 64 67 69 72 76 76 74 75 77 77 78 82 87 89 89 91
68 64 59 58 58 58 59 59 61 63 61 62 66 66 67 72 79 79 78 79 78 79 82 84 86 89 89
64 59 56 55 53 54 56 58 59 61 61 61 64 65 67 70 73 81 80 81 81 82 84 85 82 78 79
59 57 55 55 55 55 55 56 59 59 58 58 60 63 67 71 74 78 78 80 77 75 79 80 76 70 70
55 55 55 54 54 55 57 56 58 58 57 58 59 62 67 72 72 71 72 71 73 71 72 73 68 64 65
54 54 52 53 54 55 55 55 57 58 59 58 60 62 64 65 65 68 65 66 63 63 63 66 64 59 61
53 53 54 54 55 54 53 54 57 59 62 62 61 58 58 63 59 62 60 57 55 54 56 57 61 56 56
52 52 53 54 55 53 52 54 57 60 63 61 57 55 57 57 59 58 53 52 49 50 50 51 54 54 51

GFSFLT2_250_spd_141.txt.gz
Wind_Speed
93 92 91 89 89 90 89 86 85 83 81 79 78 76 75 73 72 68 65 67 73 75 79 84 87 90 102
97 94 91 91 92 92 90 88 89 86 84 82 80 77 75 76 76 73 71 71 70 76 78 81 85 89 90
98 94 92 89 87 87 88 87 86 84 82 81 77 76 76 74 74 75 74 73 71 75 78 81 82 86 89
96 96 94 90 84 82 82 78 80 78 76 76 75 74 74 72 73 72 73 74 74 76 79 82 83 84 87
89 90 90 87 81 79 77 75 75 73 72 75 75 74 74 74 74 74 74 74 76 77 79 83 84 85 86
86 86 84 81 78 75 74 74 76 73 71 72 71 73 72 74 75 74 74 73 75 77 79 82 84 84 86
82 81 77 74 69 70 67 67 70 70 67 69 67 69 70 72 71 73 74 74 74 76 77 77 80 81 84
78 78 72 69 66 64 65 63 63 64 61 66 66 66 67 68 68 70 71 71 71 72 73 74 77 80 83
75 72 69 67 66 62 59 58 61 60 58 59 63 64 64 64 65 65 66 67 69 70 71 72 75 79 83
73 69 66 65 60 54 54 56 56 57 53 53 58 59 61 61 59 60 62 63 66 68 70 73 75 77 81
71 68 65 60 53 52 51 51 52 52 49 49 51 53 56 60 59 58 60 62 64 66 68 70 72 76 81
70 69 63 56 50 49 50 49 50 49 44 46 50 49 53 57 61 60 59 60 61 64 66 68 74 80 83
70 67 61 55 50 48 47 48 46 46 45 46 49 50 52 54 57 62 63 62 64 65 66 70 76 79 81
68 63 58 53 51 48 48 46 47 46 46 46 47 49 53 55 57 63 64 64 71 69 69 72 75 77 77
64 59 55 51 50 47 47 47 48 47 47 46 47 50 53 58 61 63 65 69 69 67 67 68 71 73 73
61 56 52 49 47 46 45 45 46 47 49 48 47 49 53 60 63 64 66 64 62 60 62 64 68 69 65
58 52 49 47 45 44 43 44 45 47 49 51 52 50 54 59 60 59 60 60 57 58 59 60 60 64 61

GFSFLT2_250_spd_147.txt.gz
Wind_Speed
87 90 91 91 92 91 88 85 84 85 88 88 85 81 78 74 74 75 76 74 73 74 75 73 74 76 75
87 89 92 93 90 89 86 81 81 83 81 78 77 73 72 71 73 73 75 78 78 77 77 77 79 79 79
91 94 95 94 91 91 86 81 80 79 75 74 72 72 71 71 72 74 75 77 79 80 80 81 82 83 83
95 96 96 95 92 89 85 81 80 74 70 68 70 70 70 71 71 73 76 77 78 80 82 82 84 84 87
97 96 96 94 93 88 81 79 77 74 67 65 66 65 66 69 72 71 72 73 75 77 80 80 83 85 86
94 95 96 97 93 84 77 75 75 73 64 65 62 64 63 65 69 71 70 71 73 74 76 79 81 83 85
95 97 96 95 88 80 74 72 70 68 63 67 62 60 56 59 63 67 71 72 72 73 75 76 79 81 83
97 96 94 89 84 76 72 67 66 67 61 62 62 60 57 56 58 65 69 70 71 72 73 74 75 77 80
95 93 91 87 83 76 72 65 63 66 63 57 61 57 57 56 53 59 64 66 68 69 70 70 70 72 75
94 90 85 82 78 73 70 63 62 65 64 56 57 51 56 54 51 54 58 60 62 63 65 66 66 68 72
91 87 84 79 73 69 66 63 63 64 61 57 56 51 52 54 49 52 55 57 58 58 59 61 64 67 69
88 87 84 78 70 67 62 61 61 63 57 54 55 51 53 52 51 47 52 55 54 54 56 57 60 63 66
85 84 81 74 67 63 60 60 60 61 55 53 52 53 52 52 51 48 48 50 52 52 53 56 59 61 64
79 78 76 71 66 61 59 58 58 57 53 53 51 53 53 52 52 51 48 49 51 53 54 57 59 61 63
71 70 68 65 62 58 57 56 55 53 53 50 50 51 52 51 51 50 49 51 49 51 55 58 61 63 65
63 64 62 60 58 56 55 53 52 51 52 48 48 49 50 50 50 51 52 50 49 50 53 56 61 63 65
61 58 57 56 53 54 52 50 50 50 49 45 44 46 50 51 50 51 50 49 50 53 53 55 60 65 64

GFSFLT2_250_spd_150.txt.gz
Wind_Speed
84 86 87 87 88 89 88 90 89 89 88 89 86 82 78 78 77 76 75 76 77 78 79 79 80 81 79
91 93 95 94 94 92 92 91 90 89 86 84 85 80 76 75 74 73 72 72 74 76 77 79 81 81 83
93 97 101 103 97 94 93 91 88 87 86 86 83 77 73 72 72 71 72 72 72 72 74 76 79 82 82
101 102 106 106 102 98 94 90 88 87 87 85 79 73 71 68 68 70 71 71 72 71 71 72 75 80 82
107 110 110 109 103 98 94 93 90 88 86 81 74 70 68 66 66 68 70 70 69 68 68 69 70 74 80
116 110 109 104 103 99 97 92 90 87 84 79 71 69 65 61 65 67 68 67 66 66 66 66 67 70 75
113 107 103 104 102 100 96 90 87 82 79 77 72 65 59 59 64 64 65 65 63 63 65 66 67 68 72
106 104 105 104 101 97 92 87 82 81 75 71 70 63 59 59 59 59 63 63 63 63 64 67 68 68 69
109 107 106 103 101 93 89 81 78 75 73 67 65 61 61 60 56 56 59 60 62 64 65 66 68 67 68
106 103 101 100 95 87 83 77 75 73 73 64 65 59 60 61 55 55 56 58 60 63 63 62 62 63 64
106 101 97 94 93 88 78 75 73 70 69 66 65 58 59 58 59 54 52 56 61 61 59 58 58 58 59
101 98 94 91 85 79 76 72 71 69 67 64 62 59 58 58 58 55 50 53 58 59 57 55 55 56 57
98 95 92 86 76 72 70 68 65 66 66 62 57 58 59 59 58 53 50 51 55 56 55 55 54 56 57
95 90 87 84 63 65 64 63 59 62 63 59 55 56 59 59 57 52 49 52 52 54 55 54 54 56 56
86 83 82 77 59 56 66 55 55 60 58 54 53 55 58 59 55 51 50 51 48 49 51 52 54 56 58
72 71 68 63 58 59 56 51 54 54 53 51 51 55 56 57 54 51 52 48 46 46 48 51 54 55 57
61 58 56 53 52 50 51 51 50 49 48 48 49 51 54 55 51 52 49 46 46 46 46 50 54 56 57